Location: Harburg
(48.7667°N, 10.6667°E)
Time: 02:36:33
(UTC+00:00)

USA 234 - Pass Details

Date: 18 September 2020
Orbit: 1102 x 1106 km, 123.0° (Epoch: 16 October)

Event Time Altitude Azimuth Distance (km) Brightness Sun altitude
Exits shadow 20:19:21 13° 56° (NE) 2,721 5.2 -27.6°
Maximum altitude 20:25:17 89° 329° (NNW) 1,110 3.1 -28.3°
Drops below altitude 10° 20:31:51 10° 239° (WSW) 2,960 5.7 -29.2°
Sets 20:34:19 0° 239° (WSW) 3,916 6.3 -29.4°
